STARLINK-4665 (53599 NORAD) Tracking and Keplerian Element Data

This shows tracking and keplerian element data for the satellite.

Feedback or suggestion? Click here.




ElementValue
Catalog53599
NameSTARLINK-4665
Epoch Orbit1358
Epoch Day325.2444928
Epoch Year2022
RAAN215.7112
Inclination53.201
Eccentricity0.0003798
Argument of Perigee204.9638
Mean Anonmoly155.1123
Mean Motion16.18874773
Decay Rate0.00995911
L11 53599U 22104M 22325.24449280 .00995911 71551-3 55607-3 0 9999
L22 53599 53.2010 215.7112 0003798 204.9638 155.1123 16.18874773 13589



Live tracking and technical data element details for STARLINK-4665 (NORAD 53599). STARLINK-4665 can be tracked NOW for your location showing map with azimuth and elevation plus other details from your city location.







IsCatalogInMostPopularTable: catalog: 53599, numindb: 1
Update: records affected: 1



GetName: 53599 STARLINK-4665

Hit Count: updated at: Thu, 08 Dec 2022 20:38:29 GMT